Location: Ab? ar R?sh Ba?r?
(24.1861°N, 32.8847°E)
Time: 15:51:47
(UTC+00:00)

BlueWalker 3 - Visible Passes

Search period start: 27 February 2024 00:00
Search period end: 08 March 2024 00:00
Orbit: 486 x 500 km, 53.2° (Epoch: 26 February)

Date Brightness Start Highest point End Pass type
(mag) Time Alt. Az. Time Alt. Az. Time Alt. Az.
05 Mar 5.1 18:11:32 10° NW 18:11:34 10° NW 18:11:34 10° NW visible
06 Mar 3.8 17:47:34 10° NW 17:49:16 25° NW 17:49:16 25° NW visible
07 Mar 1.8 17:23:34 10° NW 17:27:06 77° NNW 17:27:06 77° NNW visible
